This demonstration page uses our WeatherBlox Daily Observations layout. Learn more.

Left ArrowRight Arrow

39.92423, -83.80882

Hourly Observations for December 2, 2021

Temp ( °F °C ) Dew Point ( °F °C ) Humidity (%) Winds ( mph kmh ) Pressure ( in mb ) Visibility ( mi km ) Precip ( " mm )
12:21 am 00:21 Cloudy 48 9 48 9 100 100 WSW 15 24 29.89 1012 8 13 N/A
12:56 am 00:56 Cloudy 48 9 N/A N/A W 14 22 29.89 1012 7 11 N/A
1:56 am 01:56 Cloudy 48 9 N/A N/A SW 14 22 29.88 1012 7 11 N/A
2:56 am 02:56 Cloudy 48 9 N/A N/A SW 13 20 29.87 1012 7 11 N/A
3:56 am 03:56 Cloudy with Haze 48 9 N/A N/A SW 13 20 29.84 1011 6 10 N/A
4:09 am 04:09 Cloudy with Haze 48 9 N/A N/A SW 14 22 29.84 1010 6 10 N/A
4:36 am 04:36 Cloudy with Haze 48 9 N/A N/A SW 13 20 29.85 1011 6 10 N/A
4:56 am 04:56 Cloudy 48 9 N/A N/A SW 13 20 29.83 1010 7 11 N/A
5:56 am 05:56 Hazy 48 9 N/A N/A SSW 14 22 29.82 1010 6 10 N/A
6:56 am 06:56 Clear 48 8.9 48 8.9 100 100 SW 14 22 29.82 1010 8 13 N/A
7:56 am 07:56 Sunny 47 8.3 47 8.3 100 100 WSW 13 20 29.83 1010 8 13 N/A
8:56 am 08:56 Sunny 50 10 46 7.8 86 86 SW 18 30 29.82 1010 10 16 N/A
9:56 am 09:56 Mostly Sunny 53 11.7 45 7.2 74 74 WSW 21 33 29.82 1010 10 16 N/A
10:56 am 10:56 Mostly Cloudy 53 11.7 46 7.8 77 77 WSW 21 33 29.82 1010 10 16 N/A
11:56 am 11:56 Mostly Sunny 54 12.2 47 8.3 77 77 WSW 13 20 29.81 1009 10 16 N/A
12:56 pm 12:56 Cloudy 54 12.2 46 7.8 75 75 W 15 24 29.80 1009 10 16 N/A
1:56 pm 13:56 Cloudy 56 13.3 47 8.3 72 72 W 15 24 29.80 1009 10 16 N/A
2:56 pm 14:56 Mostly Sunny 56 13.3 46 7.8 70 70 WSW 20 31 29.78 1009 10 16 N/A
3:56 pm 15:56 Sunny 56 13.3 46 7.8 70 70 W 15 24 29.81 1010 10 16 N/A
4:56 pm 16:56 Sunny 53 11.7 45 7.2 74 74 W 13 20 29.86 1011 10 16 N/A
5:56 pm 17:56 Clear 50 10 45 7.2 83 83 W 12 19 29.89 1012 10 16 N/A
6:56 pm 18:56 Clear 48 8.9 44 6.7 86 86 W 10 17 29.92 1013 10 16 N/A
7:56 pm 19:56 Clear 46 7.8 43 6.1 89 89 W 9 15 29.95 1014 10 16 N/A
8:56 pm 20:56 Clear 45 7.2 42 5.6 90 90 NW 10 17 30.00 1016 10 16 N/A
9:56 pm 21:56 Clear 43 6.1 37 2.8 80 80 NNW 8 13 30.03 1017 10 16 N/A
10:56 pm 22:56 Clear 40 4.4 35 1.7 83 83 NNW 7 11 30.05 1018 10 16 N/A
11:56 pm 23:56 Clear 40 4.4 35 1.7 83 83 N 5 7 30.06 1018 10 16 N/A

Powered by AerisWeather